owner,sensor,date,latitude,longitude,vertical_datum,direction_of_sea_water_velocity,sea_water_speed,upward_sea_water_velocity,qcFlag 
TABS,ioos:station:wmo:42046:1,2005-08-01T00:00:00Z,27.8903,-94.0367,2.0,205.1613243,30.85805081,-99999.0,'11111222,11111222,99999999' 
TABS,ioos:station:wmo:42046:1,2005-08-01T00:30:00Z,27.8903,-94.0367,2.0,210.5055143,31.7556924,-99999.0,'11111222,11111222,99999999' 
TABS,ioos:station:wmo:42046:1,2005-08-01T01:00:00Z,27.8903,-94.0367,2.0,216.3373409,30.14130057,-99999.0,'11111222,11111222,99999999' 
TABS,ioos:station:wmo:42046:1,2005-08-01T01:30:00Z,27.8903,-94.0367,2.0,214.0892327,14.71932743,-99999.0,'11111222,11111222,99999999' 
TABS,ioos:station:wmo:42046:1,2005-08-01T02:00:00Z,27.8903,-94.0367,2.0,225.5697714,17.05625985,-99999.0,'11111222,11111222,99999999' 
TABS,ioos:station:wmo:42046:1,2005-08-01T02:30:00Z,27.8903,-94.0367,2.0,244.0534637,21.53011844,-99999.0,'11111222,11111222,99999999' 
TABS,ioos:station:wmo:42046:1,2005-08-01T03:00:00Z,27.8903,-94.0367,2.0,244.5789202,17.91447739,-99999.0,'11111222,11111222,99999999' 
TABS,ioos:station:wmo:42046:1,2005-08-01T03:30:00Z,27.8903,-94.0367,2.0,248.9158738,13.34325672,-99999.0,'11111222,11111222,99999999' 
TABS,ioos:station:wmo:42046:1,2005-08-01T04:00:00Z,27.8903,-94.0367,2.0,271.6340785,11.22456235,-99999.0,'11111222,11111222,99999999' 
TABS,ioos:station:wmo:42046:1,2005-08-01T04:30:00Z,27.8903,-94.0367,2.0,316.6974679,9.550130889,-99999.0,'11133222,11111222,99999999' 
TABS,ioos:station:wmo:42046:1,2005-08-01T05:00:00Z,27.8903,-94.0367,2.0,304.8382563,3.045915298,-99999.0,'11133222,11111222,99999999' 
TABS,ioos:station:wmo:42046:1,2005-08-01T05:30:00Z,27.8903,-94.0367,2.0,187.4129679,2.712673958,-99999.0,'11133222,11111222,99999999' 
TABS,ioos:station:wmo:42046:1,2005-08-01T06:00:00Z,27.8903,-94.0367,2.0,184.9163441,2.800303555,-99999.0,'11133222,11111222,99999999' 
TABS,ioos:station:wmo:42046:1,2005-08-01T06:30:00Z,27.8903,-94.0367,2.0,138.0482626,2.393407613,-99999.0,'11133222,11111222,99999999' 
TABS,ioos:station:wmo:42046:1,2005-08-01T07:00:00Z,27.8903,-94.0367,2.0,96.70982112,3.252276126,-99999.0,'11133222,11111222,99999999' 
TABS,ioos:station:wmo:42046:1,2005-08-01T07:30:00Z,27.8903,-94.0367,2.0,101.5138043,4.408718635,-99999.0,'11133222,11111222,99999999' 
TABS,ioos:station:wmo:42046:1,2005-08-01T08:00:00Z,27.8903,-94.0367,2.0,93.49956557,8.846496482,-99999.0,'11133222,11111222,99999999' 
TABS,ioos:station:wmo:42046:1,2005-08-01T08:30:00Z,27.8903,-94.0367,2.0,101.2219956,10.22550732,-99999.0,'11111222,11111222,99999999' 
TABS,ioos:station:wmo:42046:1,2005-08-01T09:00:00Z,27.8903,-94.0367,2.0,117.3483619,12.1027311,-99999.0,'11111222,11111222,99999999' 
TABS,ioos:station:wmo:42046:1,2005-08-01T09:30:00Z,27.8903,-94.0367,2.0,114.0242183,11.2987787,-99999.0,'11111222,11111222,99999999' 
TABS,ioos:station:wmo:42046:1,2005-08-01T10:00:00Z,27.8903,-94.0367,2.0,133.5066692,12.7534662,-99999.0,'11111222,11111222,99999999' 
TABS,ioos:station:wmo:42046:1,2005-08-01T10:30:00Z,27.8903,-94.0367,2.0,125.4261133,11.35160341,-99999.0,'11111222,11111222,99999999' 
TABS,ioos:station:wmo:42046:1,2005-08-01T11:00:00Z,27.8903,-94.0367,2.0,125.2465526,13.27332664,-99999.0,'11111222,11111222,99999999' 
TABS,ioos:station:wmo:42046:1,2005-08-01T11:30:00Z,27.8903,-94.0367,2.0,132.4879204,17.2629227,-99999.0,'11111222,11111222,99999999' 
TABS,ioos:station:wmo:42046:1,2005-08-01T12:00:00Z,27.8903,-94.0367,2.0,135.7733484,21.4767898,-99999.0,'11111222,11111222,99999999' 
TABS,ioos:station:wmo:42046:1,2005-08-01T12:30:00Z,27.8903,-94.0367,2.0,144.4346768,21.78364754,-99999.0,'11111222,11111222,99999999' 
TABS,ioos:station:wmo:42046:1,2005-08-01T13:00:00Z,27.8903,-94.0367,2.0,156.995817,20.88046934,-99999.0,'11111222,11111222,99999999' 
TABS,ioos:station:wmo:42046:1,2005-08-01T13:30:00Z,27.8903,-94.0367,2.0,144.2041456,24.00421838,-99999.0,'11111222,11111222,99999999' 
TABS,ioos:station:wmo:42046:1,2005-08-01T14:00:00Z,27.8903,-94.0367,2.0,152.4009149,21.06719013,-99999.0,'11111222,11111222,99999999' 
TABS,ioos:station:wmo:42046:1,2005-08-01T14:30:00Z,27.8903,-94.0367,2.0,159.0827417,19.13075534,-99999.0,'11111222,11111222,99999999' 
TABS,ioos:station:wmo:42046:1,2005-08-01T15:00:00Z,27.8903,-94.0367,2.0,158.2242283,20.62146939,-99999.0,'11111222,11111222,99999999' 
TABS,ioos:station:wmo:42046:1,2005-08-01T15:30:00Z,27.8903,-94.0367,2.0,173.5962453,21.9670526,-99999.0,'11111222,11111222,99999999' 
TABS,ioos:station:wmo:42046:1,2005-08-01T16:00:00Z,27.8903,-94.0367,2.0,175.422439,19.92354637,-99999.0,'11111222,11111222,99999999' 
TABS,ioos:station:wmo:42046:1,2005-08-01T16:30:00Z,27.8903,-94.0367,2.0,184.248888,19.97490426,-99999.0,'11111222,11111222,99999999' 
TABS,ioos:station:wmo:42046:1,2005-08-01T17:00:00Z,27.8903,-94.0367,2.0,193.6901696,19.6894007,-99999.0,'11111222,11111222,99999999' 
TABS,ioos:station:wmo:42046:1,2005-08-01T17:30:00Z,27.8903,-94.0367,2.0,188.359845,20.08340858,-99999.0,'11111222,11111222,99999999' 
TABS,ioos:station:wmo:42046:1,2005-08-01T18:00:00Z,27.8903,-94.0367,2.0,195.8178592,25.34995464,-99999.0,'11111222,11111222,99999999' 
TABS,ioos:station:wmo:42046:1,2005-08-01T18:30:00Z,27.8903,-94.0367,2.0,202.8996025,26.44416193,-99999.0,'11111222,11111222,99999999' 
TABS,ioos:station:wmo:42046:1,2005-08-01T19:00:00Z,27.8903,-94.0367,2.0,205.6277083,23.79047288,-99999.0,'11111222,11111222,99999999' 
TABS,ioos:station:wmo:42046:1,2005-08-01T19:30:00Z,27.8903,-94.0367,2.0,209.6411344,22.66614436,-99999.0,'11111222,11111222,99999999' 
TABS,ioos:station:wmo:42046:1,2005-08-01T20:00:00Z,27.8903,-94.0367,2.0,211.0703224,23.91037432,-99999.0,'11111222,11111222,99999999' 
TABS,ioos:station:wmo:42046:1,2005-08-01T20:30:00Z,27.8903,-94.0367,2.0,212.7992441,24.62611622,-99999.0,'11111222,11111222,99999999' 
TABS,ioos:station:wmo:42046:1,2005-08-01T21:00:00Z,27.8903,-94.0367,2.0,215.3297392,22.77422447,-99999.0,'11111222,11111222,99999999' 
TABS,ioos:station:wmo:42046:1,2005-08-01T21:30:00Z,27.8903,-94.0367,2.0,221.241979,21.0392324,-99999.0,'11111222,11111222,99999999' 
TABS,ioos:station:wmo:42046:1,2005-08-01T22:00:00Z,27.8903,-94.0367,2.0,222.0501946,19.51371313,-99999.0,'11111222,11111222,99999999' 
TABS,ioos:station:wmo:42046:1,2005-08-01T22:30:00Z,27.8903,-94.0367,2.0,220.6332367,23.12587512,-99999.0,'11111222,11111222,99999999' 
TABS,ioos:station:wmo:42046:1,2005-08-01T23:00:00Z,27.8903,-94.0367,2.0,223.6058628,23.54655176,-99999.0,'11111222,11111222,99999999' 
TABS,ioos:station:wmo:42046:1,2005-08-01T23:30:00Z,27.8903,-94.0367,2.0,221.7467024,26.4176494,-99999.0,'11111222,11111222,99999999' 
TABS,ioos:station:wmo:42046:1,2005-08-02T00:00:00Z,27.8903,-94.0367,2.0,228.7406717,26.55186811,-99999.0,'11111222,11111222,99999999' 
TABS,ioos:station:wmo:42046:1,2005-08-02T00:30:00Z,27.8903,-94.0367,2.0,228.5382518,25.43362341,-99999.0,'11111222,11111222,99999999' 
TABS,ioos:station:wmo:42046:1,2005-08-02T01:00:00Z,27.8903,-94.0367,2.0,227.846719,31.60425604,-99999.0,'11111222,11111222,99999999' 
TABS,ioos:station:wmo:42046:1,2005-08-02T01:30:00Z,27.8903,-94.0367,2.0,242.573163,19.93009032,-99999.0,'11111222,11111222,99999999' 
TABS,ioos:station:wmo:42046:1,2005-08-02T02:00:00Z,27.8903,-94.0367,2.0,246.2809559,23.14502538,-99999.0,'11111222,11111222,99999999' 
TABS,ioos:station:wmo:42046:1,2005-08-02T02:30:00Z,27.8903,-94.0367,2.0,247.2261172,24.95547435,-99999.0,'11111222,11111222,99999999' 
TABS,ioos:station:wmo:42046:1,2005-08-02T03:00:00Z,27.8903,-94.0367,2.0,244.1253857,29.67477885,-99999.0,'11111222,11111222,99999999' 
TABS,ioos:station:wmo:42046:1,2005-08-02T03:30:00Z,27.8903,-94.0367,2.0,246.1976959,30.79963149,-99999.0,'11111222,11111222,99999999' 
TABS,ioos:station:wmo:42046:1,2005-08-02T04:00:00Z,27.8903,-94.0367,2.0,249.0760639,33.57394377,-99999.0,'11111222,11111222,99999999' 
TABS,ioos:station:wmo:42046:1,2005-08-02T04:30:00Z,27.8903,-94.0367,2.0,263.2228836,32.03380246,-99999.0,'11111222,11111222,99999999' 
TABS,ioos:station:wmo:42046:1,2005-08-02T05:00:00Z,27.8903,-94.0367,2.0,277.1891326,26.77043332,-99999.0,'11111222,11111222,99999999' 
TABS,ioos:station:wmo:42046:1,2005-08-02T05:30:00Z,27.8903,-94.0367,2.0,277.4743694,23.21725221,-99999.0,'11111222,11111222,99999999' 
TABS,ioos:station:wmo:42046:1,2005-08-02T06:00:00Z,27.8903,-94.0367,2.0,299.4304569,24.15736948,-99999.0,'11111222,11111222,99999999' 
TABS,ioos:station:wmo:42046:1,2005-08-02T06:30:00Z,27.8903,-94.0367,2.0,303.9140636,19.89447411,-99999.0,'11111222,11111222,99999999' 
TABS,ioos:station:wmo:42046:1,2005-08-02T07:00:00Z,27.8903,-94.0367,2.0,303.0081399,17.93472888,-99999.0,'11111222,11111222,99999999' 
TABS,ioos:station:wmo:42046:1,2005-08-02T07:30:00Z,27.8903,-94.0367,2.0,308.8105061,16.06721195,-99999.0,'11111222,11111222,99999999' 
TABS,ioos:station:wmo:42046:1,2005-08-02T08:00:00Z,27.8903,-94.0367,2.0,314.0620881,13.81871919,-99999.0,'11111222,11111222,99999999' 
TABS,ioos:station:wmo:42046:1,2005-08-02T08:30:00Z,27.8903,-94.0367,2.0,317.9788002,9.934128044,-99999.0,'11133222,11111222,99999999' 
TABS,ioos:station:wmo:42046:1,2005-08-02T09:00:00Z,27.8903,-94.0367,2.0,331.5242805,9.52200084,-99999.0,'11133222,11111222,99999999' 
TABS,ioos:station:wmo:42046:1,2005-08-02T09:30:00Z,27.8903,-94.0367,2.0,341.3838465,7.98795343,-99999.0,'11133222,11111222,99999999' 
TABS,ioos:station:wmo:42046:1,2005-08-02T10:00:00Z,27.8903,-94.0367,2.0,330.890423,6.043343445,-99999.0,'11133222,11111222,99999999' 
TABS,ioos:station:wmo:42046:1,2005-08-02T10:30:00Z,27.8903,-94.0367,2.0,354.1442106,5.880688735,-99999.0,'11133222,11111222,99999999' 
TABS,ioos:station:wmo:42046:1,2005-08-02T11:00:00Z,27.8903,-94.0367,2.0,12.31376306,5.486209985,-99999.0,'11133222,11111222,99999999' 
TABS,ioos:station:wmo:42046:1,2005-08-02T11:30:00Z,27.8903,-94.0367,2.0,352.5467207,6.706668323,-99999.0,'11133222,11111222,99999999' 
TABS,ioos:station:wmo:42046:1,2005-08-02T12:00:00Z,27.8903,-94.0367,2.0,18.05490563,6.195038337,-99999.0,'11133222,11111222,99999999' 
TABS,ioos:station:wmo:42046:1,2005-08-02T12:30:00Z,27.8903,-94.0367,2.0,37.39364086,6.784283308,-99999.0,'11133222,11111222,99999999' 
TABS,ioos:station:wmo:42046:1,2005-08-02T13:00:00Z,27.8903,-94.0367,2.0,34.5706671,5.234214363,-99999.0,'11133222,11111222,99999999' 
TABS,ioos:station:wmo:42046:1,2005-08-02T13:30:00Z,27.8903,-94.0367,2.0,59.00459071,6.194529845,-99999.0,'11133222,11111222,99999999' 
TABS,ioos:station:wmo:42046:1,2005-08-02T14:00:00Z,27.8903,-94.0367,2.0,62.65646096,5.595158622,-99999.0,'11133222,11111222,99999999' 
TABS,ioos:station:wmo:42046:1,2005-08-02T14:30:00Z,27.8903,-94.0367,2.0,75.01306936,7.308604518,-99999.0,'11133222,11111222,99999999' 
TABS,ioos:station:wmo:42046:1,2005-08-02T15:00:00Z,27.8903,-94.0367,2.0,53.99859355,4.882560804,-99999.0,'11133222,11111222,99999999' 
TABS,ioos:station:wmo:42046:1,2005-08-02T15:30:00Z,27.8903,-94.0367,2.0,78.5827127,7.324950512,-99999.0,'11133222,11111222,99999999' 
TABS,ioos:station:wmo:42046:1,2005-08-02T16:00:00Z,27.8903,-94.0367,2.0,84.50141395,6.992174197,-99999.0,'11133222,11111222,99999999' 
TABS,ioos:station:wmo:42046:1,2005-08-02T16:30:00Z,27.8903,-94.0367,2.0,116.4812847,6.122360656,-99999.0,'11133222,11111222,99999999' 
TABS,ioos:station:wmo:42046:1,2005-08-02T17:00:00Z,27.8903,-94.0367,2.0,120.6335592,10.71540946,-99999.0,'11111222,11111222,99999999' 
TABS,ioos:station:wmo:42046:1,2005-08-02T17:30:00Z,27.8903,-94.0367,2.0,147.0424418,13.01433056,-99999.0,'11111222,11111222,99999999' 
TABS,ioos:station:wmo:42046:1,2005-08-02T18:00:00Z,27.8903,-94.0367,2.0,135.1721602,11.75923892,-99999.0,'11111222,11111222,99999999' 
TABS,ioos:station:wmo:42046:1,2005-08-02T18:30:00Z,27.8903,-94.0367,2.0,149.1379341,11.57960276,-99999.0,'11111222,11111222,99999999' 
TABS,ioos:station:wmo:42046:1,2005-08-02T19:00:00Z,27.8903,-94.0367,2.0,152.3272898,12.72560411,-99999.0,'11111222,11111222,99999999' 
TABS,ioos:station:wmo:42046:1,2005-08-02T19:30:00Z,27.8903,-94.0367,2.0,162.596637,16.68371961,-99999.0,'11111222,11111222,99999999' 
TABS,ioos:station:wmo:42046:1,2005-08-02T20:00:00Z,27.8903,-94.0367,2.0,163.7874639,15.32960534,-99999.0,'11111222,11111222,99999999' 
TABS,ioos:station:wmo:42046:1,2005-08-02T20:30:00Z,27.8903,-94.0367,2.0,143.6959449,16.60281,-99999.0,'11111222,11111222,99999999' 
TABS,ioos:station:wmo:42046:1,2005-08-02T21:00:00Z,27.8903,-94.0367,2.0,158.7354059,17.04015258,-99999.0,'11111222,11111222,99999999' 
TABS,ioos:station:wmo:42046:1,2005-08-02T21:30:00Z,27.8903,-94.0367,2.0,162.6546471,15.46317238,-99999.0,'11111222,11111222,99999999' 
TABS,ioos:station:wmo:42046:1,2005-08-02T22:00:00Z,27.8903,-94.0367,2.0,159.479887,14.86305823,-99999.0,'11111222,11111222,99999999' 
TABS,ioos:station:wmo:42046:1,2005-08-02T22:30:00Z,27.8903,-94.0367,2.0,168.623121,16.83069814,-99999.0,'11111222,11111222,99999999' 
TABS,ioos:station:wmo:42046:1,2005-08-02T23:00:00Z,27.8903,-94.0367,2.0,161.3329189,18.7461356,-99999.0,'11111222,11111222,99999999' 
TABS,ioos:station:wmo:42046:1,2005-08-02T23:30:00Z,27.8903,-94.0367,2.0,162.9655417,20.31105364,-99999.0,'11111222,11111222,99999999' 
TABS,ioos:station:wmo:42046:1,2005-08-03T00:00:00Z,27.8903,-94.0367,2.0,176.2856107,20.22247512,-99999.0,'11111222,11111222,99999999' 
TABS,ioos:station:wmo:42046:1,2005-08-03T00:30:00Z,27.8903,-94.0367,2.0,178.7521206,21.58511756,-99999.0,'11111222,11111222,99999999' 
TABS,ioos:station:wmo:42046:1,2005-08-03T01:00:00Z,27.8903,-94.0367,2.0,181.6045799,22.13868334,-99999.0,'11111222,11111222,99999999' 
TABS,ioos:station:wmo:42046:1,2005-08-03T01:30:00Z,27.8903,-94.0367,2.0,190.402012,8.418360886,-99999.0,'11133222,11111222,99999999' 
TABS,ioos:station:wmo:42046:1,2005-08-03T02:00:00Z,27.8903,-94.0367,2.0,187.5629412,14.4355845,-99999.0,'11111222,11111222,99999999' 
TABS,ioos:station:wmo:42046:1,2005-08-03T02:30:00Z,27.8903,-94.0367,2.0,192.1469207,22.14583708,-99999.0,'11111222,11111222,99999999' 
TABS,ioos:station:wmo:42046:1,2005-08-03T03:00:00Z,27.8903,-94.0367,2.0,201.1216281,21.45117712,-99999.0,'11111222,11111222,99999999' 
TABS,ioos:station:wmo:42046:1,2005-08-03T03:30:00Z,27.8903,-94.0367,2.0,204.9417702,19.42133363,-99999.0,'11111222,11111222,99999999' 
TABS,ioos:station:wmo:42046:1,2005-08-03T04:00:00Z,27.8903,-94.0367,2.0,206.5784595,18.72930591,-99999.0,'11111222,11111222,99999999' 
TABS,ioos:station:wmo:42046:1,2005-08-03T04:30:00Z,27.8903,-94.0367,2.0,220.8067632,17.2146275,-99999.0,'11111222,11111222,99999999' 
TABS,ioos:station:wmo:42046:1,2005-08-03T05:00:00Z,27.8903,-94.0367,2.0,239.871961,16.33697952,-99999.0,'11111222,11111222,99999999' 
TABS,ioos:station:wmo:42046:1,2005-08-03T05:30:00Z,27.8903,-94.0367,2.0,250.1274497,17.65106229,-99999.0,'11111222,11111222,99999999' 
TABS,ioos:station:wmo:42046:1,2005-08-03T06:00:00Z,27.8903,-94.0367,2.0,264.6343758,15.18653351,-99999.0,'11111222,11111222,99999999' 
TABS,ioos:station:wmo:42046:1,2005-08-03T06:30:00Z,27.8903,-94.0367,2.0,261.9524928,11.71535744,-99999.0,'11111222,11111222,99999999' 
TABS,ioos:station:wmo:42046:1,2005-08-03T07:00:00Z,27.8903,-94.0367,2.0,283.5000341,11.39482339,-99999.0,'11111222,11111222,99999999' 
TABS,ioos:station:wmo:42046:1,2005-08-03T07:30:00Z,27.8903,-94.0367,2.0,289.0703257,8.84543385,-99999.0,'11133222,11111222,99999999' 
TABS,ioos:station:wmo:42046:1,2005-08-03T08:00:00Z,27.8903,-94.0367,2.0,301.9069608,6.149056838,-99999.0,'11133222,11111222,99999999' 
TABS,ioos:station:wmo:42046:1,2005-08-03T08:30:00Z,27.8903,-94.0367,2.0,317.8863661,9.409383614,-99999.0,'11133222,11111222,99999999' 
TABS,ioos:station:wmo:42046:1,2005-08-03T09:00:00Z,27.8903,-94.0367,2.0,307.2683757,12.08829186,-99999.0,'11111222,11111222,99999999' 
TABS,ioos:station:wmo:42046:1,2005-08-03T09:30:00Z,27.8903,-94.0367,2.0,319.8482617,10.37501807,-99999.0,'11111222,11111222,99999999' 
TABS,ioos:station:wmo:42046:1,2005-08-03T10:00:00Z,27.8903,-94.0367,2.0,342.5390746,11.16445252,-99999.0,'11111222,11111222,99999999' 
TABS,ioos:station:wmo:42046:1,2005-08-03T10:30:00Z,27.8903,-94.0367,2.0,352.5574933,8.723497005,-99999.0,'11133222,11111222,99999999' 
TABS,ioos:station:wmo:42046:1,2005-08-03T11:00:00Z,27.8903,-94.0367,2.0,7.371641511,5.767668506,-99999.0,'11133222,11111222,99999999' 
TABS,ioos:station:wmo:42046:1,2005-08-03T11:30:00Z,27.8903,-94.0367,2.0,5.5455148,6.2090579,-99999.0,'11133222,11111222,99999999' 
TABS,ioos:station:wmo:42046:1,2005-08-03T12:00:00Z,27.8903,-94.0367,2.0,24.59905183,7.038813821,-99999.0,'11133222,11111222,99999999' 
TABS,ioos:station:wmo:42046:1,2005-08-03T12:30:00Z,27.8903,-94.0367,2.0,22.94787484,7.797050724,-99999.0,'11133222,11111222,99999999' 
TABS,ioos:station:wmo:42046:1,2005-08-03T13:00:00Z,27.8903,-94.0367,2.0,0.132839031,4.320011574,-99999.0,'11133222,11111222,99999999' 
TABS,ioos:station:wmo:42046:1,2005-08-03T13:30:00Z,27.8903,-94.0367,2.0,22.6088755,3.953846229,-99999.0,'11133222,11111222,99999999' 
TABS,ioos:station:wmo:42046:1,2005-08-03T14:00:00Z,27.8903,-94.0367,2.0,105.0344849,2.505773334,-99999.0,'11133222,11111222,99999999' 
TABS,ioos:station:wmo:42046:1,2005-08-03T14:30:00Z,27.8903,-94.0367,2.0,101.4247844,7.825049521,-99999.0,'11133222,11111222,99999999' 
TABS,ioos:station:wmo:42046:1,2005-08-03T15:00:00Z,27.8903,-94.0367,2.0,96.46591698,6.038410387,-99999.0,'11133222,11111222,99999999' 
TABS,ioos:station:wmo:42046:1,2005-08-03T15:30:00Z,27.8903,-94.0367,2.0,93.66680277,7.505364748,-99999.0,'11133222,11111222,99999999' 
TABS,ioos:station:wmo:42046:1,2005-08-03T16:00:00Z,27.8903,-94.0367,2.0,113.4817863,9.561851285,-99999.0,'11133222,11111222,99999999' 
TABS,ioos:station:wmo:42046:1,2005-08-03T16:30:00Z,27.8903,-94.0367,2.0,120.7760763,7.856392302,-99999.0,'11133222,11111222,99999999' 
TABS,ioos:station:wmo:42046:1,2005-08-03T17:00:00Z,27.8903,-94.0367,2.0,104.009082,10.24470595,-99999.0,'11111222,11111222,99999999' 
TABS,ioos:station:wmo:42046:1,2005-08-03T17:30:00Z,27.8903,-94.0367,2.0,98.78242018,10.80670625,-99999.0,'11111222,11111222,99999999' 
TABS,ioos:station:wmo:42046:1,2005-08-03T18:00:00Z,27.8903,-94.0367,2.0,111.7800193,9.971840352,-99999.0,'11133222,11111222,99999999' 
TABS,ioos:station:wmo:42046:1,2005-08-03T18:30:00Z,27.8903,-94.0367,2.0,125.2765573,13.52322816,-99999.0,'11111222,11111222,99999999' 
TABS,ioos:station:wmo:42046:1,2005-08-03T19:00:00Z,27.8903,-94.0367,2.0,102.9537008,11.55403393,-99999.0,'11111222,11111222,99999999' 
TABS,ioos:station:wmo:42046:1,2005-08-03T19:30:00Z,27.8903,-94.0367,2.0,103.5560545,10.70832387,-99999.0,'11111222,11111222,99999999' 
TABS,ioos:station:wmo:42046:1,2005-08-03T20:00:00Z,27.8903,-94.0367,2.0,103.6894034,11.62009466,-99999.0,'11111222,11111222,99999999' 
TABS,ioos:station:wmo:42046:1,2005-08-03T20:30:00Z,27.8903,-94.0367,2.0,118.55266,11.0886248,-99999.0,'11111222,11111222,99999999' 
TABS,ioos:station:wmo:42046:1,2005-08-03T21:00:00Z,27.8903,-94.0367,2.0,127.3269478,15.04047872,-99999.0,'11111222,11111222,99999999' 
TABS,ioos:station:wmo:42046:1,2005-08-03T21:30:00Z,27.8903,-94.0367,2.0,129.0692474,18.13536049,-99999.0,'11111222,11111222,99999999' 
TABS,ioos:station:wmo:42046:1,2005-08-03T22:00:00Z,27.8903,-94.0367,2.0,130.5068371,17.78181374,-99999.0,'11111222,11111222,99999999' 
TABS,ioos:station:wmo:42046:1,2005-08-03T22:30:00Z,27.8903,-94.0367,2.0,143.931346,19.4479022,-99999.0,'11111222,11111222,99999999' 
TABS,ioos:station:wmo:42046:1,2005-08-03T23:00:00Z,27.8903,-94.0367,2.0,137.1580927,18.58888109,-99999.0,'11111222,11111222,99999999' 
TABS,ioos:station:wmo:42046:1,2005-08-03T23:30:00Z,27.8903,-94.0367,2.0,148.6724201,17.02157748,-99999.0,'11111222,11111222,99999999' 
TABS,ioos:station:wmo:42046:1,2005-08-04T00:00:00Z,27.8903,-94.0367,2.0,151.0239229,18.39228643,-99999.0,'11111222,11111222,99999999' 
TABS,ioos:station:wmo:42046:1,2005-08-04T00:30:00Z,27.8903,-94.0367,2.0,148.2439124,19.72250745,-99999.0,'11111222,11111222,99999999' 
TABS,ioos:station:wmo:42046:1,2005-08-04T01:00:00Z,27.8903,-94.0367,2.0,154.205607,19.28112289,-99999.0,'11111222,11111222,99999999' 
TABS,ioos:station:wmo:42046:1,2005-08-04T01:30:00Z,27.8903,-94.0367,2.0,159.6814008,4.233414697,-99999.0,'11133222,11111222,99999999' 
TABS,ioos:station:wmo:42046:1,2005-08-04T02:00:00Z,27.8903,-94.0367,2.0,177.0518394,8.361064526,-99999.0,'11133222,11111222,99999999' 
TABS,ioos:station:wmo:42046:1,2005-08-04T02:30:00Z,27.8903,-94.0367,2.0,183.0889387,6.309167932,-99999.0,'11133222,11111222,99999999' 
TABS,ioos:station:wmo:42046:1,2005-08-04T03:00:00Z,27.8903,-94.0367,2.0,215.1688208,3.975751501,-99999.0,'11133222,11111222,99999999' 
TABS,ioos:station:wmo:42046:1,2005-08-04T03:30:00Z,27.8903,-94.0367,2.0,229.542866,4.731268329,-99999.0,'11133222,11111222,99999999' 
TABS,ioos:station:wmo:42046:1,2005-08-04T04:00:00Z,27.8903,-94.0367,2.0,266.4509054,2.584956479,-99999.0,'11133222,11111222,99999999' 
TABS,ioos:station:wmo:42046:1,2005-08-04T04:30:00Z,27.8903,-94.0367,2.0,303.8860526,5.685710158,-99999.0,'11133222,11111222,99999999' 
TABS,ioos:station:wmo:42046:1,2005-08-04T05:00:00Z,27.8903,-94.0367,2.0,299.4497177,4.08823923,-99999.0,'11133222,11111222,99999999' 
TABS,ioos:station:wmo:42046:1,2005-08-04T05:30:00Z,27.8903,-94.0367,2.0,323.154853,9.372000854,-99999.0,'11133222,11111222,99999999' 
TABS,ioos:station:wmo:42046:1,2005-08-04T06:00:00Z,27.8903,-94.0367,2.0,313.8604163,12.44047025,-99999.0,'11111222,11111222,99999999' 
TABS,ioos:station:wmo:42046:1,2005-08-04T06:30:00Z,27.8903,-94.0367,2.0,321.1025628,9.778123542,-99999.0,'11133222,11111222,99999999' 
TABS,ioos:station:wmo:42046:1,2005-08-04T07:00:00Z,27.8903,-94.0367,2.0,321.6653788,13.22032148,-99999.0,'11111222,11111222,99999999' 
TABS,ioos:station:wmo:42046:1,2005-08-04T07:30:00Z,27.8903,-94.0367,2.0,336.8997212,14.57897459,-99999.0,'11111222,11111222,99999999' 
TABS,ioos:station:wmo:42046:1,2005-08-04T08:00:00Z,27.8903,-94.0367,2.0,337.5410857,12.6169727,-99999.0,'11111222,11111222,99999999' 
TABS,ioos:station:wmo:42046:1,2005-08-04T08:30:00Z,27.8903,-94.0367,2.0,340.8888208,10.44573119,-99999.0,'11111222,11111222,99999999' 
TABS,ioos:station:wmo:42046:1,2005-08-04T09:00:00Z,27.8903,-94.0367,2.0,342.5633858,9.077114079,-99999.0,'11133222,11111222,99999999' 
TABS,ioos:station:wmo:42046:1,2005-08-04T09:30:00Z,27.8903,-94.0367,2.0,10.27813978,7.622309361,-99999.0,'11133222,11111222,99999999' 
TABS,ioos:station:wmo:42046:1,2005-08-04T10:00:00Z,27.8903,-94.0367,2.0,12.96874944,4.946160127,-99999.0,'11133222,11111222,99999999' 
TABS,ioos:station:wmo:42046:1,2005-08-04T10:30:00Z,27.8903,-94.0367,2.0,21.5063133,6.846678027,-99999.0,'11133222,11111222,99999999' 
TABS,ioos:station:wmo:42046:1,2005-08-04T11:00:00Z,27.8903,-94.0367,2.0,359.6130836,4.44010135,-99999.0,'11133222,11144222,99999999' 
TABS,ioos:station:wmo:42046:1,2005-08-04T11:30:00Z,27.8903,-94.0367,2.0,8.592784219,11.91372318,-99999.0,'11111222,11111222,99999999' 
TABS,ioos:station:wmo:42046:1,2005-08-04T12:00:00Z,27.8903,-94.0367,2.0,20.05248353,11.31597543,-99999.0,'11111222,11111222,99999999' 
TABS,ioos:station:wmo:42046:1,2005-08-04T12:30:00Z,27.8903,-94.0367,2.0,14.58035076,13.02960091,-99999.0,'11111222,11111222,99999999' 
TABS,ioos:station:wmo:42046:1,2005-08-04T13:00:00Z,27.8903,-94.0367,2.0,28.34681921,13.5213313,-99999.0,'11111222,11111222,99999999' 
TABS,ioos:station:wmo:42046:1,2005-08-04T13:30:00Z,27.8903,-94.0367,2.0,19.54683877,10.43115526,-99999.0,'11111222,11111222,99999999' 
TABS,ioos:station:wmo:42046:1,2005-08-04T14:00:00Z,27.8903,-94.0367,2.0,27.5204087,11.53524165,-99999.0,'11111222,11111222,99999999' 
TABS,ioos:station:wmo:42046:1,2005-08-04T14:30:00Z,27.8903,-94.0367,2.0,29.53504778,12.861248,-99999.0,'11111222,11111222,99999999' 
TABS,ioos:station:wmo:42046:1,2005-08-04T15:00:00Z,27.8903,-94.0367,2.0,38.80037177,16.56540069,-99999.0,'11111222,11111222,99999999' 
TABS,ioos:station:wmo:42046:1,2005-08-04T15:30:00Z,27.8903,-94.0367,2.0,45.43325993,20.57739536,-99999.0,'11111222,11111222,99999999' 
TABS,ioos:station:wmo:42046:1,2005-08-04T16:00:00Z,27.8903,-94.0367,2.0,41.19154269,19.58769001,-99999.0,'11111222,11111222,99999999' 